Find Starlink 3344

NORAD ID: 51110 Int'l Des: 2022-005 Owner: SPXS Country: US Constellation: starlink operational
LEOCIRCULAR

实时位置

正在加载3D地球...

关于 Starlink 3344

正在加载描述...

即将过境

Passes for default location (London). Set your location on the main map for personalized predictions.

高度历史

Loading altitude history...

两行轨道根数

1 51110U 22005G 26110.36404884 .00000612 00000-0 56564-4 0 9993
2 51110 53.2157 102.0136 0001266 80.9694 279.1441 15.08838958235178
Epoch: Apr 20, 2026 • Age: 9 hours

当前状态

高度 544.2 km
速度 7.59 km/s
星下点 -15.75°S, 33.53°W
发射日期 Jan 19, 2022
运行时间 4.2 years
类型 internet

技术详情

分类 Payload
质量 297.00 kg
干质量 275.00 kg
总质量 297.00 kg
长度 0.20 m
直径 2.80 m
跨度 9.00 m
形状 Box + pan
制造商 SPXS
平台类型 Starlink
阶段状态 In Orbit
所有者/国家 SPXS/US

Most Searched